Showing default

ICEYE-X26, 56961

Orbit data source: Space-Track

ICEYE-X26, 56961 is a payload satellite owned by ICEYE US (US) in SSO that was launched on Mon, 12 Jun 2023 UTC via an FALCON 9 launch vehicle from the Air Force Western Test Range (AFWTR). Payload-class satellites include a variety of spacecraft equipped with specific instruments for various scientific and technological missions. These include communications satellites like Starlink; space stations such as the ISS; scientific satellites like the Hubble; Earth observation satellites from companies like Planet Labs, Umbra, and HawkEye 360; GPS; miniature CubeSats for education and research; and military/defense satellites.

Not visible in the next 10 days
Identifier
56961, 2023-084AF
Orbit
SSO
Country
Flag of USUS
Related business
Manufacturer
ICEYE
Mission
Operational Commercial Radar Imaging
Bus & Motor
ICEYE, Unknown motor
Mass
90 kg wet, 89 kg dry
Launch date (UTC)
2023-06-12 (3 years ago)
Launch vehicle
FALCON 9
Launch site
Air Force Western Test Range (AFWTR)
Object type
Payload
Rocket body
Debris
Shape & HBR
Box + 1 Pan, 1.6 m
Radar Cross Section
0.825 m², Medium (>0.1 m² and < 1m²)

Expand to show TLE details & history
Last TLE update: 13 hours ago

TLE from 13 hours ago
0 ICEYE-X26
1 56961U 23084AF  26129.41339892  .00354046  48370-4  12078-2 0  9991
2 56961  97.5773 290.9094 0004787 297.7179  62.3607 15.89742973163085
Epoch: 2026-05-09T09:55Z
TLE epoch observation values (Epoch: 2026-05-09T09:55:17.666Z)
Latitude
-0.00006°
Longitude
-85.14539°
Altitude
304.699 km
Speed
7.726 km/s
True Right ascension
19h 23m 38s
True Declination
0° 00' 00"
Sunlit
Object was in full shadow at epoch
Visualization orbit readout
Latitude
Unknown
Longitude
Unknown
Altitude
Unknown
Speed
Unknown
Apparent Right ascension
Unknown
Apparent Declination
Unknown
Sunlit
N/A
Visualization observer readout
Local Sidereal Time
07:17:41
Azimuth
Unknown
Elevation
Unknown
Doppler factor
Unknown
Orbital elements
Apogee altitude
303.081 km
Perigee altitude
296.687 km
Semi-major axis
6,678.021 km
Eccentricity
0.00048
Inclination
97.5773°
RAAN
290.9094°
Arg. of periapsis
297.7179°
True anomaly
62.40931°
Mean anomaly
62.3607°
Eccentric anomaly
62.385°
Mean motion
3.97715 °/min
Orbital period
90.52 mins
BSTAR
0.0012078
Loading maneuver chart data...
Computing Atmospheric mass density...

Documentation

Showing up to 5 results
|